LANDSAT 5 1 14780U 84021A 09184.60540380 -.00000005 00000-0 90780-5 0 8289 2 14780 98.2434 251.9839 0003665 71.0457 289.1145 14.57093550347770 SPOT 2 1 20436U 90005A 09184.47949198 .00000170 00000-0 10000-3 0 4900 2 20436 98.6621 254.2136 0001346 111.3060 304.5720 14.20058838 8017 ERS-2 1 23560U 95021A 09184.82228224 -.00000596 00000-0 -20502-3 0 2374 2 23560 98.5538 259.7939 0001381 99.0530 261.0799 14.32241458742594 RADARSAT-1 1 23710U 95059A 09184.47266771 .00000097 00000-0 54575-4 0 3634 2 23710 98.5770 191.0316 0001162 91.9716 63.8724 14.29988700713138 TOMS EP 1 23940U 96037A 09183.53483729 -.00000009 00000-0 84982-5 0 992 2 23940 98.0295 55.1433 0028807 309.9759 49.8907 14.52246281691650 MIDORI (ADEOS) 1 24277U 96046A 09184.90141651 -.00000027 00000-0 58792-5 0 993 2 24277 98.3649 148.8216 0000386 154.7551 205.3648 14.28597762671315 ORBVIEW 2 (SEASTAR) 1 24883U 97037A 09184.31653961 .00000018 00000-0 13678-4 0 8590 2 24883 98.3425 308.3131 0002042 129.0333 231.1058 14.59994246634798 IRS-1D 1 24971U 97057A 09184.41771704 -.00001600 00000-0 -56135-3 0 4407 2 24971 98.2367 219.7451 0053132 245.6671 113.8985 14.32948630615157 TRMM 1 25063U 97074A 09184.47394313 .00002227 00000-0 31995-4 0 1030 2 25063 34.9653 230.7620 0001036 286.9466 73.1104 15.55744717662634 SPOT 4 1 25260U 98017A 09184.49340278 .00000139 00000-0 85832-4 0 2524 2 25260 98.6968 257.0472 0001313 125.9642 57.7818 14.20045000584646 FASAT B 1 25395U 98043B 09184.56130619 .00000025 00000-0 28417-4 0 4900 2 25395 98.3339 214.8293 0003046 140.2727 219.8680 14.24352521570775 TECHSAT 1B (GO-32) 1 25397U 98043D 09184.24306415 .00000119 00000-0 70599-4 0 9318 2 25397 98.3259 205.7231 0001166 156.6884 203.4346 14.23161121570417 LANDSAT 7 1 25682U 99020A 09184.64092547 -.00000045 00000-0 97581-7 0 9203 2 25682 98.2069 252.4244 0001213 119.3911 240.7414 14.57115405543472 KITSAT 3 1 25756U 99029A 09183.93938538 .00000061 00000-0 26768-4 0 9465 2 25756 98.6649 17.2638 0014767 122.9359 237.3261 14.52539194535440 DLR-TUBSAT 1 25757U 99029B 09184.48840065 .00000044 00000-0 23300-4 0 9183 2 25757 98.6856 8.4847 0015135 147.5287 212.6857 14.50843633535078 IRS-P4 (OCEANSAT 1) 1 25758U 99029C 09183.65057406 -.00000722 00000-0 -17221-3 0 1878 2 25758 98.2749 278.3794 0000497 93.2802 266.8429 14.50854291535102 QUIKSCAT 1 25789U 99034A 09184.43533272 -.00000037 00000-0 29791-5 0 4660 2 25789 98.6341 13.3641 0000477 104.6005 255.5228 14.26787760522776 IKONOS 2 1 25919U 99051A 09184.53521600 -.00000054 00000-0 -12749-5 0 433 2 25919 98.1048 259.5608 0001683 79.9861 280.1533 14.64448865522451 CBERS 1 (ZY 1A) 1 25940U 99057A 09184.88233704 .00000037 00000-0 27334-4 0 9383 2 25940 98.1558 189.3243 0006069 44.9321 315.2357 14.34454307509209 TERRA 1 25994U 99068A 09184.45394624 .00000081 00000-0 28048-4 0 8321 2 25994 98.2005 259.2030 0001175 71.4911 288.6416 14.57128228507527 ARIRANG 1 (KOMPSAT-1) 1 26032U 99070A 09184.47567032 .00000108 00000-0 28392-4 0 9878 2 26032 97.9200 64.5595 0005086 168.0476 192.0852 14.65611618509872 EO-1 1 26619U 00075A 09184.38599102 -.00000175 00000-0 -25570-4 0 2020 2 26619 98.1438 251.5396 0008857 253.9311 106.0914 14.62025539458636 SAC C 1 26620U 00075B 09183.57781768 .00000170 00000-0 47726-4 0 7567 2 26620 97.9088 215.5510 0001072 78.4279 281.7049 14.56574372457916 EROS A1 1 26631U 00079A 09184.48385478 .00000899 00000-0 47482-4 0 9550 2 26631 97.4870 249.6054 0007609 294.3413 161.0278 15.18043375476990 QUICKBIRD 2 1 26953U 01047A 09184.65830951 .00001601 00000-0 42225-4 0 2312 2 26953 97.1472 260.8983 0001948 108.3955 51.5844 15.39928382433148 TES 1 26957U 01049A 09184.43082394 -.00000128 00000-0 -53321-5 0 2364 2 26957 97.5854 261.8601 0023424 123.1472 237.1939 15.00949290421648 JASON 1 1 26997U 01055A 09183.36248403 -.00000038 00000-0 10000-3 0 475 2 26997 66.0435 38.9681 0007368 263.6966 96.3211 12.80931016353987 METEOR-3M 1 27001U 01056A 09184.54906298 -.00000047 00000-0 -57191-5 0 4432 2 27001 99.2603 39.4231 0013851 357.9798 2.1291 13.68712251377759 BADR-B 1 27003U 01056C 09183.80265684 .00000116 00000-0 17993-3 0 3190 2 27003 99.2489 45.0150 0021613 1.1959 358.9233 13.70102207378091 MAROC-TUBSAT 1 27004U 01056D 09184.58627342 .00000023 00000-0 74373-4 0 3250 2 27004 99.2474 45.1022 0020811 359.9717 0.1416 13.70028644378170 ENVISAT 1 27386U 02009A 09184.45125312 -.00000046 00000-0 -10164-5 0 1049 2 27386 98.5458 251.6019 0001022 90.5932 269.5369 14.32249525383825 SPOT 5 1 27421U 02021A 09184.43925177 .00000046 00000-0 42590-4 0 1795 2 27421 98.7729 257.2312 0000999 77.3647 282.7646 14.20004789371475 AQUA 1 27424U 02022A 09184.33865747 .00000090 00000-0 29965-4 0 3572 2 27424 98.1782 126.3599 0002012 84.5309 275.6119 14.57130103381115 HAIYANG-1A 1 27430U 02024A 09183.81335771 .00000018 00000-0 23574-4 0 984 2 27430 98.4820 249.5204 0009862 36.1776 324.0071 14.29707019372302 ALSAT 1 1 27559U 02054A 09184.47111340 -.00000019 00000-0 49563-5 0 4978 2 27559 97.9399 58.8829 0022531 307.4499 52.4660 14.69323089352115 MIDORI II (ADEOS-II) 1 27597U 02056A 09183.71251304 .00000067 00000-0 45458-4 0 8933 2 27597 98.4728 247.7151 0000255 133.5176 226.6050 14.26169459341001 ICESAT 1 27642U 03002A 09184.55263632 .00000185 00000-0 20101-4 0 2625 2 27642 94.0004 301.1068 0002256 102.0123 258.1357 14.90872475352102 ORBVIEW 3 1 27838U 03030A 09184.64100433 .00001572 00000-0 40400-4 0 7701 2 27838 97.0570 242.8531 0002047 70.3576 87.2514 15.40738688337936 IRS-P6 (RESOURCESAT-1) 1 28051U 03046A 09184.86304223 .00000012 00000-0 25562-4 0 7411 2 28051 98.7131 260.5115 0003224 95.5332 264.6211 14.21631484296480 CBERS 2 (ZY 1B) 1 28057U 03049A 09184.88171338 -.00000054 00000-0 -42981-5 0 5287 2 28057 98.2818 236.3393 0000733 349.3598 10.7564 14.34908806298794 TANSUO 1 1 28220U 04012A 09184.11774878 -.00000060 00000-0 -93579-6 0 2446 2 28220 97.4923 220.7209 0012261 135.1987 225.0195 14.88663506282786 FORMOSAT-2 (ROCSAT 2) 1 28254U 04018A 09184.48117068 .00000107 00000-0 10000-3 0 8161 2 28254 98.8559 243.7869 0001899 171.0941 247.2835 14.00820381261801 AURA 1 28376U 04026A 09183.65751233 .00000007 00000-0 11499-4 0 5385 2 28376 98.1751 127.8273 0001827 87.1135 273.0238 14.57126150264067 PARASOL 1 28498U 04049G 09184.40886463 -.00000023 00000-0 50971-5 0 4548 2 28498 98.2716 127.2299 0001228 80.9878 279.1449 14.57137224241448 IRS-P5 (CARTOSAT-1) 1 28649U 05017A 09184.47598171 .00000032 00000-0 10447-4 0 7102 2 28649 97.8660 257.2299 0001727 61.4501 298.6881 14.82662702225275 TOPSAT 1 28891U 05043B 09184.82565463 .00000057 00000-0 21484-4 0 1426 2 28891 98.0493 74.1983 0016053 298.8787 61.0806 14.59766276196290 SINAH 1 1 28893U 05043D 09184.38634858 -.00000020 00000-0 53535-5 0 731 2 28893 98.0532 74.6983 0014771 299.9926 59.9807 14.60076825196274 ALOS (DAICHI) 1 28931U 06002A 09184.46069310 .00000129 00000-0 36831-4 0 8730 2 28931 98.1893 259.3793 0001372 96.0697 264.0661 14.59555604183271 EROS B 1 29079U 06014A 09184.56715278 .00000716 00000-0 38660-4 0 6090 2 29079 97.3992 305.2930 0010324 5.2275 191.4162 15.17827542177002 RSS-1 (YAOGAN 1) 1 29092U 06015A 09184.44777176 .00000029 00000-0 10444-4 0 5735 2 29092 97.8380 178.2386 0002014 85.6630 274.4811 14.80313253172174 RESURS-DK 1 1 29228U 06021A 09184.46917422 .00001277 00000-0 30901-4 0 4415 2 29228 69.9334 328.5881 0160633 146.8259 214.3087 15.32361218170823 ARIRANG 2 (KOMPSAT-2) 1 29268U 06031A 09184.46830626 .00000018 00000-0 12817-4 0 2753 2 29268 98.0386 76.6492 0019257 94.4103 265.9296 14.61713981156464 LAPAN-TUBSAT 1 29709U 07001A 09184.42452364 -.00000035 00000-0 21873-5 0 7495 2 29709 97.8113 239.6052 0012282 227.8949 132.1219 14.80255858133889 CARTOSAT-2 (IRS-P7) 1 29710U 07001B 09184.42517265 .00000045 00000-0 13031-4 0 7518 2 29710 97.8806 244.6357 0001711 36.9630 323.1699 14.78668072133781 HAIYANG-1B 1 31113U 07010A 09184.38904217 -.00000002 00000-0 16037-4 0 4925 2 31113 98.5444 257.6892 0014146 22.8001 337.3808 14.29426497116258 COSMO-SKYMED 1 1 31598U 07023A 09184.46611572 -.00000007 00000-0 56249-5 0 3197 2 31598 97.8655 12.9604 0001354 77.7631 282.3740 14.82165633112036 TERRASAR-X 1 31698U 07026A 09184.48218627 .00000302 00000-0 17569-4 0 2879 2 31698 97.4447 191.6599 0001662 82.7849 71.0536 15.19152142113746 WORLDVIEW-1 (WV-1) 1 32060U 07041A 09184.51359954 .00000460 00000-0 21652-4 0 32 2 32060 97.4300 261.8348 0002304 88.0922 95.3593 15.24424824 99576 CBERS 2B 1 32062U 07042A 09184.42024710 -.00000006 00000-0 12558-4 0 36 2 32062 98.4832 260.2954 0026093 302.7274 57.1395 14.38430465 93743 COSMO-SKYMED 2 1 32376U 07059A 09184.76991405 -.00000025 00000-0 33737-5 0 7416 2 32376 97.8658 13.2590 0001372 83.8664 276.2707 14.82165634 84827 RADARSAT-2 1 32382U 07061A 09184.50913086 .00000001 00000-0 17434-4 0 7178 2 32382 98.5778 191.9222 0001170 91.1705 60.3270 14.29983013 81021 CARTOSAT-2A 1 32783U 08021A 09184.38763156 .00000153 00000-0 27932-4 0 3209 2 32783 97.9474 246.6360 0015877 5.9214 354.2219 14.78664709 63727 IMS-1 1 32786U 08021D 09183.72096999 -.00001168 00000-0 -14723-3 0 4217 2 32786 97.9478 246.7506 0012306 344.3358 15.7473 14.80039393 63684 JASON 2 (OSTM) 1 33105U 08032A 09184.41370092 -.00000061 00000-0 00000+0 0 3545 2 33105 66.0440 37.1834 0007671 268.8599 91.1534 12.80930251 48420 RAPIDEYE 2 1 33312U 08040A 09184.41392107 .00000035 00000-0 11637-4 0 9702 2 33312 97.9741 269.5301 0013578 62.7308 297.5286 14.79906999 45604 RAPIDEYE 5 1 33313U 08040B 09184.43944065 -.00000004 00000-0 65783-5 0 9665 2 33313 97.9750 268.9020 0017041 291.0695 68.8692 14.79901385 45559 RAPIDEYE 1 1 33314U 08040C 09184.42733435 .00000019 00000-0 95239-5 0 117 2 33314 97.9738 269.6510 0026357 71.8712 288.5366 14.79906866 45594 RAPIDEYE 3 1 33315U 08040D 09184.39914693 .00000015 00000-0 89558-5 0 9461 2 33315 97.9727 269.0394 0012762 11.8004 348.3505 14.79907350 45555 RAPIDEYE 4 1 33316U 08040E 09184.38515960 .00000001 00000-0 71082-5 0 9418 2 33316 97.9726 268.9000 0011548 314.0080 46.0178 14.79905117 45546 HJ-1A 1 33320U 08041A 09184.40772089 .00000085 00000-0 20127-4 0 9150 2 33320 97.9814 259.7765 0025681 31.9902 328.2859 14.75155094 44284 HJ-1B 1 33321U 08041B 09184.50906670 .00000034 00000-0 12683-4 0 9430 2 33321 97.9831 259.8596 0044187 42.4176 318.0436 14.75159566 44285 GEOEYE 1 1 33331U 08042A 09184.77273153 .00000006 00000-0 10052-4 0 9127 2 33331 98.0994 259.3172 0011185 31.2844 328.9017 14.64455423 43905 THEOS 1 33396U 08049A 09184.84069775 -.00000044 00000-0 51000-9 0 1922 2 33396 98.7441 251.9096 0001147 92.8869 267.2436 14.20016018 39146 COSMO-SKYMED 3 1 33412U 08054A 09184.41970144 -.00000049 00000-0 30851-6 0 7661 2 33412 97.8658 12.9135 0001342 79.5048 280.6321 14.82165422 37234 YAOGAN 4 1 33446U 08061A 09184.43703349 -.00000338 00000-0 -41989-4 0 6628 2 33446 97.9033 265.0382 0013502 341.7582 18.3140 14.75691943 31594 YAOGAN 5 1 33456U 08064A 09184.48592593 .00000483 00000-0 22308-4 0 6436 2 33456 97.3726 259.3104 0004563 343.7999 194.8599 15.24843764 30533